Location: Dürabuch
(48.2640°N, 11.2185°E)
Time: 08:34:53
(UTC+00:00)

Meteor 1-4 Rocket - Pass Details

Date: 23 May 2024
Orbit: 359 x 380 km, 81.2° (Epoch: 15 June)

Event Time Altitude Azimuth Distance (km) Brightness Sun altitude
Exits shadow 00:50:57 70° 169° (S) 388 1.8 -17.6°
Maximum altitude 00:51:13 83° 101° (E) 370 1.9 -17.6°
Drops below altitude 10° 00:54:08 10° 13° (NNE) 1,356 6.1 -17.4°
Sets 00:56:08 0° 12° (NNE) 2,212 7.5 -17.3°
